[[{"header":{"parameterUnit":"m.s-1","parameterCategory":1,"la1":30.2991,"la2":30.254,"lo1":-89.0895,"lo2":-89.0444,"dy":0.0017,"dx":0.0017,"nx":28,"ny":28,"refTime":"2024-08-18T03:00:00:Z","depth":0,"parameterNumber":2,"parameterNumberName":"U-component_of_WINDS"},"data":[0,0,0,0,0,0,0,0,0,0,0,0,0,0,0,0,0,0,0,0,0,0,0,0,0,0,0,0,0,0,0,0,0,0,0,0,0,0,0,0,0,0,0,0,0,0,0,0,0,0,0,0,0,0,0,0,0,0,2.1431,2.1431,0,2.138,2.1379,2.1379,2.1321,2.132,2.132,2.1319,2.1264,2.1263,2.1262,0,0,0,0,0,0,0,0,0,0,0,0,0,2.1479,2.1479,2.1431,2.1431,2.143,2.138,2.1379,2.1378,2.1321,2.132,2.1319,2.1318,2.1264,2.1263,2.1262,0,0,0,0,0,0,0,0,0,0,0,0,0,2.1446,2.1479,2.1432,2.1396,2.1392,2.138,2.1379,2.1378,2.1322,2.132,2.1319,2.1318,2.1264,2.1263,2.1262,2.1281,0,0,2.1259,2.1259,0,0,0,0,0,0,0,0,2.1448,2.1444,2.1402,2.1398,2.1394,2.1356,2.1376,2.1345,2.1322,2.1348,2.1319,2.1317,2.1295,2.1292,2.1284,2.1278,2.1276,2.1259,2.1258,2.1258,2.1258,0,0,0,0,0,0,0,2.145,2.1446,2.1411,2.1401,2.1396,2.1382,2.1376,2.137,2.1329,2.1346,2.1342,2.1336,2.1293,2.1286,2.1283,2.1275,2.1259,2.1258,2.1257,2.1257,2.1282,2.1283,0,0,0,0,0,0,2.1458,2.1449,2.1412,2.1409,2.1419,2.1382,2.1375,2.1369,2.1329,2.1322,2.1337,2.1334,2.1288,2.1284,2.1281,2.13,2.1258,2.1257,2.1256,2.128,2.1282,2.1283,0,0,0,0,0,0,2.146,2.1456,2.1415,2.1428,2.1421,2.1382,2.1376,2.1369,2.1361,2.1323,2.1315,2.1338,2.1287,2.1282,2.1281,2.1297,2.1256,2.1255,2.1279,2.1281,2.1283,2.1338,0,0,0,0,0,0,2.1461,2.1457,2.1463,2.1428,2.1421,2.1417,2.1377,2.1369,2.136,2.1355,2.1321,2.1314,2.1286,2.1283,2.128,2.1295,2.1255,2.1277,2.128,2.1282,2.1335,2.1342,2.1348,0,0,0,0,0,2.1463,2.148,2.1464,2.146,2.1429,2.1418,2.1413,2.1381,2.1362,2.1368,2.1343,2.1315,2.1296,2.1284,2.128,2.1294,2.1276,2.1279,2.1282,2.1332,2.134,2.1347,0,0,0,0,0,0,2.1517,2.1475,2.1456,2.1463,2.1445,2.1408,2.1415,2.1391,2.1377,2.1372,2.1332,2.1325,2.1329,2.1311,2.1298,2.131,2.1282,2.1284,2.1321,2.1329,2.1335,2.1339,2.1254,0,0,0,0,0,2.153,2.1525,2.1488,2.1498,2.149,2.1454,2.1448,2.1425,2.1404,2.1395,2.137,2.1351,2.134,2.1334,2.1322,2.1332,2.1324,2.1341,2.1347,2.1353,2.1355,2.1359,2.1366,2.1293,2.1293,2.1293,0,0,2.1556,2.1533,2.1532,2.1508,2.1491,2.1486,2.1448,2.1444,2.144,2.1394,2.1392,2.1374,2.1349,2.1354,2.1355,2.134,2.1373,2.1356,2.1361,2.136,2.1363,2.137,2.1376,2.1295,2.1294,2.1294,0,0,2.1601,2.1583,2.1589,2.1573,2.1548,2.1525,2.1526,2.1494,2.148,2.1478,2.1443,2.1438,2.142,2.1404,2.1394,2.1435,2.1408,2.1432,2.1465,2.147,2.1476,2.148,2.1495,2.15,2.1434,2.1434,2.1435,0,2.1636,2.1628,2.1595,2.1594,2.1584,2.1544,2.1549,2.1535,2.1508,2.1502,2.1486,2.1464,2.1444,2.1445,2.1455,2.1448,2.1448,2.1435,2.1478,2.1482,2.1486,2.1499,2.1505,2.1437,2.1437,2.1437,2.1437,0,2.1673,2.1668,2.1676,2.1651,2.1642,2.1645,2.1611,2.1607,2.1585,2.1563,2.1561,2.1537,2.152,2.1518,2.1496,2.1516,2.1508,2.1485,2.1456,2.1497,2.1508,2.1513,2.1442,2.1441,2.144,2.1439,0,0,2.1748,2.1706,2.171,2.1698,2.1668,2.1664,2.1664,2.1648,2.1645,2.1628,2.1627,2.1614,2.1594,2.1582,2.1558,2.1563,2.1596,2.1539,2.1538,2.155,2.1616,2.1633,2.1639,2.1579,2.158,2.1581,2.1618,0,2.1787,2.1786,2.1757,2.1764,2.1759,2.1721,2.1722,2.1704,2.1684,2.1677,2.1655,2.1646,2.162,2.1612,2.1615,2.1592,2.1609,2.1589,2.1577,2.1577,2.1583,2.1645,2.1662,2.1698,2.1622,2.1623,2.1624,0,2.1832,2.1818,2.1825,2.1796,2.1793,2.1794,2.1777,2.1771,2.175,2.1735,2.1723,2.1696,2.1695,2.1668,2.1665,2.1652,2.1646,2.1634,2.1635,2.1631,2.1602,2.1642,2.1709,2.1714,2.163,2.163,2.1629,0,2.1886,2.1869,2.1871,2.1863,2.1829,2.1831,2.1816,2.1794,2.1787,2.1772,2.1767,2.1752,2.1744,2.1733,2.1703,2.1687,2.1704,2.1675,2.1691,2.1691,2.1694,2.1694,2.1761,2.1693,2.1693,2.1693,2.1692,0,2.1932,2.1937,2.1895,2.1896,2.1902,2.1868,2.1874,2.1856,2.1837,2.1834,2.1801,2.1798,2.1759,2.1753,2.1729,2.173,2.1727,2.1715,2.1708,2.1717,2.1718,2.1711,2.1707,2.1694,2.1694,2.1693,2.1693,0,2.1992,2.1964,2.1964,2.1932,2.1925,2.193,2.1903,2.1902,2.1881,2.1878,2.1875,2.1842,2.1832,2.1802,2.1784,2.1769,2.1776,2.1765,2.1784,2.1779,2.1797,2.1795,2.186,2.1866,2.1796,2.1796,2.1797,0,2.2022,2.2026,2.1995,2.1991,2.1979,2.1973,2.1965,2.1933,2.1926,2.1903,2.1906,2.1894,2.1882,2.1869,2.1843,2.1829,2.1816,2.184,2.1814,2.1823,2.1816,2.1816,2.1816,2.1845,2.1846,2.1847,2.1847,0,2.2079,2.2066,2.2056,2.2043,2.2035,2.2023,2.2008,2.2007,2.1971,2.1965,2.1955,2.1947,2.193,2.1918,2.1901,2.1886,2.1861,2.1856,2.1859,2.1867,2.1878,2.1872,2.1798,2.1854,2.1854,2.1853,2.1853,2.1853,2.2125,2.2126,2.2105,2.2096,2.2083,2.207,2.2068,2.2048,2.2039,2.2023,2.2005,2.1998,2.1977,2.1951,2.1938,2.1932,2.1918,2.1922,2.1923,2.1924,2.1928,2.188,2.1929,2.1928,2.1928,2.1928,2.1928,0,2.2179,2.2164,2.2157,2.2138,2.2131,2.211,2.2093,2.2088,2.2082,2.2066,2.2056,2.2045,2.2034,2.2008,2.1994,2.1994,2.1982,2.1991,2.199,2.1987,2.1942,2.194,2.2001,2.2001,2.2001,2.2001,2.2001,2.2001,2.2207,2.2208,2.2192,2.2187,2.2172,2.2165,2.2157,2.2145,2.2132,2.2121,2.2112,2.2096,2.2075,2.206,2.2049,2.2042,2.2038,2.2051,2.204,2.1997,2.199,2.1984,2.1982,2.2051,2.2051,2.2085,2.2086,2.2086]},{"header":{"parameterUnit":"m.s-1","parameterCategory":1,"la1":30.2991,"la2":30.254,"lo1":-89.0895,"lo2":-89.0444,"dy":0.0017,"dx":0.0017,"nx":28,"ny":28,"refTime":"2024-08-18T03:00:00:Z","depth":0,"parameterNumber":3,"parameterNumberName":"V-component_of_WINDS"},"data":[0,0,0,0,0,0,0,0,0,0,0,0,0,0,0,0,0,0,0,0,0,0,0,0,0,0,0,0,0,0,0,0,0,0,0,0,0,0,0,0,0,0,0,0,0,0,0,0,0,0,0,0,0,0,0,0,0,0,-3.8458,-3.8459,0,-3.857,-3.8572,-3.8573,-3.8581,-3.858,-3.8578,-3.8577,-3.869,-3.8694,-3.8698,0,0,0,0,0,0,0,0,0,0,0,0,0,-3.8248,-3.8252,-3.8458,-3.8459,-3.8461,-3.857,-3.8572,-3.8573,-3.8581,-3.858,-3.8578,-3.8577,-3.8688,-3.8693,-3.8698,0,0,0,0,0,0,0,0,0,0,0,0,0,-3.8348,-3.8253,-3.8458,-3.8478,-3.8481,-3.857,-3.8572,-3.8574,-3.8582,-3.858,-3.8578,-3.8576,-3.8687,-3.8693,-3.8699,-3.8775,0,0,-3.8718,-3.8721,0,0,0,0,0,0,0,0,-3.8342,-3.8355,-3.8473,-3.8477,-3.848,-3.856,-3.8539,-3.8641,-3.8582,-3.8543,-3.8577,-3.8575,-3.8648,-3.8657,-3.8682,-3.878,-3.8785,-3.8719,-3.8722,-3.8725,-3.8727,0,0,0,0,0,0,0,-3.8335,-3.835,-3.8502,-3.8475,-3.8479,-3.8481,-3.8493,-3.8558,-3.8604,-3.8546,-3.8547,-3.8561,-3.8649,-3.8676,-3.8685,-3.8786,-3.8718,-3.8724,-3.8728,-3.873,-3.8953,-3.8955,0,0,0,0,0,0,-3.8325,-3.8345,-3.8499,-3.8506,-3.8405,-3.8486,-3.85,-3.8536,-3.8604,-3.8612,-3.8562,-3.8561,-3.8667,-3.8678,-3.8689,-3.8782,-3.8725,-3.8731,-3.8734,-3.8951,-3.8953,-3.8956,0,0,0,0,0,0,-3.832,-3.8338,-3.8494,-3.8426,-3.8446,-3.8492,-3.8533,-3.8539,-3.8566,-3.8616,-3.8624,-3.8581,-3.8665,-3.868,-3.8754,-3.8786,-3.8734,-3.8739,-3.8948,-3.8951,-3.8954,-3.897,0,0,0,0,0,0,-3.8314,-3.8337,-3.8366,-3.8426,-3.8449,-3.8558,-3.8535,-3.8543,-3.8577,-3.8576,-3.8636,-3.8644,-3.8665,-3.8744,-3.876,-3.8794,-3.8744,-3.8945,-3.8949,-3.8953,-3.8966,-3.8973,-3.8979,0,0,0,0,0,-3.8306,-3.8365,-3.8367,-3.8386,-3.8487,-3.8559,-3.8572,-3.8597,-3.858,-3.861,-3.8642,-3.8642,-3.8781,-3.8752,-3.8769,-3.8806,-3.8943,-3.8948,-3.8953,-3.8964,-3.8972,-3.8979,0,0,0,0,0,0,-3.8306,-3.8373,-3.8377,-3.8457,-3.8502,-3.8561,-3.8599,-3.8604,-3.8655,-3.8652,-3.8679,-3.8692,-3.8765,-3.8793,-3.876,-3.8883,-3.886,-3.8869,-3.8862,-3.887,-3.8876,-3.8867,-3.8749,0,0,0,0,0,-3.8316,-3.8369,-3.8425,-3.849,-3.8513,-3.8552,-3.8584,-3.8599,-3.8647,-3.8666,-3.8704,-3.875,-3.8804,-3.8839,-3.8891,-3.8971,-3.8984,-3.9005,-3.9011,-3.9016,-3.9022,-3.9067,-3.9077,-3.8972,-3.8972,-3.8971,0,0,-3.8335,-3.8379,-3.8411,-3.8491,-3.8528,-3.8583,-3.8568,-3.8626,-3.8667,-3.8675,-3.8747,-3.8776,-3.8829,-3.8907,-3.8942,-3.8932,-3.9055,-3.9022,-3.9025,-3.903,-3.9073,-3.9083,-3.9092,-3.8975,-3.8974,-3.8974,0,0,-3.8399,-3.8437,-3.8496,-3.8534,-3.8591,-3.8617,-3.8631,-3.8689,-3.8709,-3.8783,-3.879,-3.8838,-3.8931,-3.8969,-3.9,-3.908,-3.9082,-3.9096,-3.9128,-3.9171,-3.918,-3.9187,-3.9216,-3.9225,-3.9103,-3.9103,-3.9103,0,-3.8415,-3.8499,-3.8525,-3.8584,-3.8619,-3.8631,-3.869,-3.8726,-3.8796,-3.882,-3.8808,-3.8925,-3.8962,-3.9048,-3.9068,-3.9093,-3.911,-3.9089,-3.9176,-3.9184,-3.9192,-3.9219,-3.923,-3.9104,-3.9104,-3.9104,-3.9104,0,-3.8517,-3.8575,-3.8615,-3.8685,-3.8725,-3.8783,-3.8818,-3.8856,-3.8867,-3.8895,-3.8969,-3.9014,-3.9076,-3.9098,-3.9109,-3.9186,-3.9178,-3.9171,-3.9148,-3.9203,-3.9229,-3.9239,-3.9106,-3.9106,-3.9105,-3.9105,0,0,-3.8581,-3.8667,-3.8681,-3.8713,-3.8778,-3.8823,-3.8882,-3.8944,-3.8975,-3.9024,-3.9075,-3.9154,-3.9148,-3.9184,-3.92,-3.9238,-3.9299,-3.9226,-3.9228,-3.9238,-3.9387,-3.9391,-3.9403,-3.9301,-3.9303,-3.9305,-3.9382,0,-3.8652,-3.8759,-3.8785,-3.8876,-3.893,-3.8943,-3.8995,-3.904,-3.9067,-3.9116,-3.9146,-3.9202,-3.919,-3.9212,-3.9251,-3.9283,-3.9329,-3.9278,-3.9348,-3.935,-3.9333,-3.9417,-3.9421,-3.9492,-3.9392,-3.9394,-3.9396,0,-3.8748,-3.8801,-3.8898,-3.8957,-3.898,-3.9026,-3.9086,-3.9133,-3.9185,-3.9202,-3.9243,-3.9255,-3.9318,-3.9293,-3.9379,-3.9344,-3.9374,-3.9394,-3.9398,-3.9404,-3.9375,-3.9425,-3.9515,-3.9525,-3.9412,-3.9411,-3.9409,0,-3.8785,-3.888,-3.8951,-3.8978,-3.9049,-3.9081,-3.9112,-3.9162,-3.9198,-3.9249,-3.9273,-3.9331,-3.9362,-3.9407,-3.9435,-3.9414,-3.9519,-3.9496,-3.9535,-3.9534,-3.9555,-3.9553,-3.9651,-3.9576,-3.9576,-3.9575,-3.9575,0,-3.8861,-3.892,-3.8969,-3.9012,-3.9078,-3.9108,-3.9173,-3.9204,-3.9249,-3.9298,-3.9312,-3.9358,-3.9393,-3.9443,-3.9465,-3.9533,-3.9548,-3.9563,-3.9568,-3.9561,-3.9559,-3.9581,-3.9576,-3.9578,-3.9578,-3.9577,-3.9577,0,-3.8913,-3.8948,-3.9026,-3.9087,-3.9104,-3.915,-3.9202,-3.9245,-3.9273,-3.9336,-3.9352,-3.9396,-3.9457,-3.949,-3.9565,-3.958,-3.9656,-3.9659,-3.9639,-3.9641,-3.9677,-3.9673,-3.9791,-3.9808,-3.9723,-3.9723,-3.9724,0,-3.8958,-3.9004,-3.9071,-3.9106,-3.9137,-3.9193,-3.923,-3.9261,-3.9299,-3.9363,-3.9397,-3.9459,-3.951,-3.9606,-3.9644,-3.9702,-3.9706,-3.9744,-3.9715,-3.9707,-3.9707,-3.9703,-3.9708,-3.9748,-3.9749,-3.975,-3.975,0,-3.9035,-3.9051,-3.9105,-3.9165,-3.9209,-3.9258,-3.9306,-3.9334,-3.9373,-3.9415,-3.9478,-3.9517,-3.9595,-3.9656,-3.9718,-3.9749,-3.9756,-3.9759,-3.9771,-3.9764,-3.9751,-3.9759,-3.9652,-3.9756,-3.9756,-3.9755,-3.9755,-3.9755,-3.9085,-3.9127,-3.9181,-3.924,-3.928,-3.9325,-3.9368,-3.9403,-3.9456,-3.9523,-3.9538,-3.9604,-3.9656,-3.974,-3.9773,-3.9824,-3.9817,-3.9834,-3.9839,-3.9842,-3.9844,-3.9744,-3.9836,-3.9836,-3.9836,-3.9835,-3.9835,0,-3.9163,-3.9198,-3.9253,-3.9321,-3.9368,-3.9372,-3.9426,-3.9465,-3.9523,-3.9571,-3.9622,-3.9694,-3.9754,-3.9798,-3.9859,-3.9892,-3.9897,-3.9907,-3.9904,-3.9911,-3.9847,-3.983,-3.9902,-3.9902,-3.9902,-3.9902,-3.9902,-3.9902,-3.9208,-3.9279,-3.9301,-3.9392,-3.9428,-3.9493,-3.9524,-3.9566,-3.9604,-3.9685,-3.9735,-3.9764,-3.9811,-3.9875,-3.993,-3.9942,-3.9963,-3.9973,-3.9984,-3.9923,-3.9916,-3.9909,-3.9894,-3.9977,-3.9977,-4.0044,-4.0045,-4.0046]}]]